TimeCST,TemperatureF,Dew PointF,Humidity,Sea Level PressureIn,VisibilityMPH,Wind Direction,Wind SpeedMPH,Gust SpeedMPH,PrecipitationIn,Events,Conditions,WindDirDegrees,DateUTC
12:15 AM,35.6,-9999,N/A,30.08,2.5,NE,10.4,-,N/A,,Overcast,50,2013-01-01 06:15:00
12:35 AM,34.0,-9999,N/A,30.09,2.0,NNE,10.4,-,N/A,,Overcast,30,2013-01-01 06:35:00
12:55 AM,32.4,-9999,N/A,30.10,2.5,NNE,8.1,16.1,N/A,,Overcast,20,2013-01-01 06:55:00
1:15 AM,31.5,-9999,N/A,30.09,3.0,NE,9.2,-,N/A,,Overcast,40,2013-01-01 07:15:00
1:35 AM,30.7,-9999,N/A,30.10,3.0,NNE,11.5,16.1,N/A,,Overcast,30,2013-01-01 07:35:00
1:55 AM,30.7,-9999,N/A,30.09,5.0,NE,12.7,-,N/A,,Overcast,40,2013-01-01 07:55:00
2:15 AM,30.7,-9999,N/A,30.09,5.0,NNE,10.4,-,N/A,,Overcast,30,2013-01-01 08:15:00
2:35 AM,30.7,30.9,100,30.09,7.0,NE,12.7,16.1,N/A,,Overcast,40,2013-01-01 08:35:00
2:55 AM,30.7,30.9,100,30.12,7.0,NNE,9.2,-,N/A,,Overcast,20,2013-01-01 08:55:00
3:15 AM,30.6,30.7,100,30.11,7.0,NNE,12.7,19.6,N/A,,Overcast,30,2013-01-01 09:15:00
3:35 AM,28.6,28.8,100,30.10,7.0,NNE,13.8,-,N/A,,Overcast,30,2013-01-01 09:35:00
3:55 AM,28.2,28.4,100,30.09,7.0,NNE,10.4,-,N/A,,Overcast,30,2013-01-01 09:55:00
4:15 AM,28.2,28.4,100,30.08,7.0,NNE,15.0,-,N/A,,Overcast,30,2013-01-01 10:15:00
4:35 AM,28.2,28.4,100,30.11,7.0,NE,10.4,-,N/A,,Overcast,40,2013-01-01 10:35:00
4:55 AM,28.2,28.4,100,30.14,7.0,NE,10.4,-,N/A,,Overcast,40,2013-01-01 10:55:00
5:15 AM,28.2,28.4,100,30.14,10.0,NE,8.1,-,N/A,,Overcast,40,2013-01-01 11:15:00
5:35 AM,28.2,28.4,100,30.14,7.0,NNE,9.2,-,N/A,,Overcast,20,2013-01-01 11:35:00
5:55 AM,28.2,28.4,100,30.16,7.0,NE,5.8,-,N/A,,Overcast,50,2013-01-01 11:55:00
6:15 AM,27.9,28.0,100,30.16,10.0,NE,8.1,-,N/A,,Overcast,50,2013-01-01 12:15:00
6:35 AM,28.0,28.2,100,30.17,10.0,NNE,8.1,-,N/A,,Scattered Clouds,30,2013-01-01 12:35:00
6:55 AM,27.5,27.7,100,30.18,10.0,NE,10.4,-,N/A,,Mostly Cloudy,40,2013-01-01 12:55:00
7:15 AM,27.1,27.3,100,30.19,10.0,NNE,9.2,-,N/A,,Overcast,30,2013-01-01 13:15:00
7:35 AM,26.6,26.8,100,30.19,10.0,NNE,9.2,-,N/A,,Overcast,20,2013-01-01 13:35:00
7:55 AM,25.9,25.9,100,30.21,10.0,NNE,11.5,-,N/A,,Overcast,20,2013-01-01 13:55:00
8:15 AM,25.7,25.7,100,30.19,10.0,NNE,17.3,21.9,N/A,,Overcast,20,2013-01-01 14:15:00
8:35 AM,25.7,25.5,99,30.18,10.0,North,11.5,17.3,N/A,,Overcast,10,2013-01-01 14:35:00
8:55 AM,25.7,25.3,99,30.17,10.0,NNE,13.8,-,N/A,,Overcast,30,2013-01-01 14:55:00
9:15 AM,25.7,25.2,98,30.21,10.0,NE,11.5,-,N/A,,Overcast,40,2013-01-01 15:15:00
9:35 AM,25.7,24.6,96,30.23,10.0,NNE,9.2,-,N/A,,Overcast,20,2013-01-01 15:35:00
9:55 AM,25.7,24.6,96,30.23,10.0,NE,10.4,-,N/A,,Mostly Cloudy,40,2013-01-01 15:55:00
10:15 AM,25.7,24.6,96,30.24,10.0,NE,10.4,-,N/A,,Overcast,40,2013-01-01 16:15:00
10:35 AM,25.7,24.6,96,30.25,10.0,NNE,9.2,-,N/A,,Overcast,20,2013-01-01 16:35:00
10:55 AM,25.7,24.6,96,30.25,10.0,NNE,10.4,-,N/A,,Overcast,20,2013-01-01 16:55:00
11:15 AM,25.7,24.3,94,30.25,10.0,NE,10.4,-,N/A,,Overcast,40,2013-01-01 17:15:00
11:35 AM,25.7,23.7,92,30.24,10.0,NNE,10.4,-,N/A,,Overcast,30,2013-01-01 17:35:00
11:55 AM,25.7,23.7,92,30.24,10.0,North,6.9,-,N/A,,Overcast,10,2013-01-01 17:55:00
12:15 PM,25.7,24.1,94,30.23,10.0,North,6.9,-,N/A,,Overcast,10,2013-01-01 18:15:00
12:35 PM,26.4,25.2,95,30.23,7.0,NNE,8.1,-,N/A,,Overcast,30,2013-01-01 18:35:00
12:55 PM,26.2,25.0,95,30.23,7.0,North,9.2,-,N/A,,Overcast,10,2013-01-01 18:55:00
1:15 PM,26.1,24.8,95,30.22,7.0,North,6.9,-,N/A,,Overcast,10,2013-01-01 19:15:00
1:35 PM,26.2,24.6,94,30.22,10.0,North,8.1,-,N/A,,Overcast,350,2013-01-01 19:35:00
1:55 PM,26.2,24.1,92,30.22,10.0,North,8.1,-,N/A,,Overcast,10,2013-01-01 19:55:00
2:15 PM,26.6,24.1,90,30.23,10.0,North,6.9,-,N/A,,Overcast,360,2013-01-01 20:15:00
2:35 PM,25.9,23.0,89,30.23,10.0,North,9.2,-,N/A,,Scattered Clouds,350,2013-01-01 20:35:00
2:55 PM,26.2,22.3,85,30.24,10.0,North,8.1,-,N/A,,Clear,10,2013-01-01 20:55:00
3:15 PM,27.3,23.2,84,30.23,10.0,NNE,8.1,-,N/A,,Clear,20,2013-01-01 21:15:00
3:35 PM,28.0,23.2,82,30.24,10.0,NNE,6.9,-,N/A,,Scattered Clouds,20,2013-01-01 21:35:00
3:55 PM,28.2,22.6,80,30.23,10.0,NNE,5.8,-,N/A,,Mostly Cloudy,30,2013-01-01 21:55:00
4:15 PM,28.2,21.4,76,30.24,10.0,NE,5.8,-,N/A,,Scattered Clouds,40,2013-01-01 22:15:00
4:35 PM,28.2,21.0,74,30.24,10.0,NNE,5.8,-,N/A,,Scattered Clouds,30,2013-01-01 22:35:00
4:55 PM,27.0,19.2,73,30.23,10.0,NNE,5.8,-,N/A,,Clear,30,2013-01-01 22:55:00
5:15 PM,25.3,18.0,74,30.24,10.0,NNE,4.6,-,N/A,,Clear,20,2013-01-01 23:15:00
5:35 PM,24.6,17.6,75,30.24,10.0,NNE,4.6,-,N/A,,Clear,30,2013-01-01 23:35:00
5:55 PM,23.2,17.2,78,30.24,10.0,NNE,4.6,-,N/A,,Clear,30,2013-01-01 23:55:00
6:15 PM,22.8,17.1,79,30.24,10.0,NE,3.5,-,N/A,,Clear,40,2013-01-02 00:15:00
6:35 PM,22.8,17.4,80,30.25,10.0,Calm,Calm,-,N/A,,Clear,0,2013-01-02 00:35:00
6:55 PM,22.8,18.0,82,30.26,10.0,Calm,Calm,-,N/A,,Clear,0,2013-01-02 00:55:00
7:15 PM,21.9,19.0,89,30.28,10.0,Calm,Calm,-,N/A,,Clear,0,2013-01-02 01:15:00
7:35 PM,21.6,19.2,91,30.27,10.0,Calm,Calm,-,N/A,,Clear,0,2013-01-02 01:35:00
7:55 PM,20.7,19.4,95,30.27,10.0,Calm,Calm,-,N/A,,Clear,0,2013-01-02 01:55:00
8:15 PM,20.3,20.3,100,30.26,7.0,Calm,Calm,-,N/A,,Clear,0,2013-01-02 02:15:00
8:35 PM,-9999,-9999,N/A,30.26,10.0,Calm,Calm,-,N/A,,Clear,0,2013-01-02 02:35:00
8:55 PM,18.7,18.9,100,30.26,10.0,Calm,Calm,-,N/A,,Clear,0,2013-01-02 02:55:00
9:15 PM,19.8,19.9,100,30.27,7.0,Calm,Calm,-,N/A,,Clear,0,2013-01-02 03:15:00
9:35 PM,20.7,20.8,100,30.26,10.0,Calm,Calm,-,N/A,,Clear,0,2013-01-02 03:35:00
9:55 PM,18.7,18.9,100,30.25,10.0,Calm,Calm,-,N/A,,Clear,0,2013-01-02 03:55:00
10:15 PM,18.1,18.3,100,30.26,10.0,Calm,Calm,-,N/A,,Clear,0,2013-01-02 04:15:00
10:35 PM,18.1,18.3,100,30.25,10.0,Calm,Calm,-,N/A,,Clear,0,2013-01-02 04:35:00
10:55 PM,18.1,18.3,100,30.25,7.0,Calm,Calm,-,N/A,,Clear,0,2013-01-02 04:55:00
11:15 PM,18.1,18.3,100,30.26,7.0,Calm,Calm,-,N/A,,Clear,0,2013-01-02 05:15:00
11:35 PM,17.2,17.4,100,30.25,10.0,Calm,Calm,-,N/A,,Clear,0,2013-01-02 05:35:00
11:55 PM,16.0,16.0,100,30.25,7.0,Calm,Calm,-,N/A,,Clear,0,2013-01-02 05:55:00